Weather in Kilindoni

Tanzania     7°55′01″S   39°40′01″E
temp.,
°C
wind,
m/s
gust,
m/s
humid.,
%
clouds,
%
prec.,
mm/h
press.,
hPa
HPBL,
m
13 june, sun
sun1300:00+26se67640 0.0 1017952
03:00+26sse786914 0.1 1016911
06:00+26sse67704 0.1 1016835
09:00+25s777296 0.9 1019960
12:00+26s777284 0.6 1018980
15:00+26sse78723 0.7 1016835
18:00+26se78711 0.0 1016617
21:00+26se78685 0.0 1017687
14 june, mon
mon1400:00+26sse67685 0.0 1017882
03:00+26sse68675 0.0 1015970
06:00+26sse89685 0.0 10151105
09:00+26sse886959 0.1 10181303
12:00+26s8868100 0.1 10171263
15:00+25sse6767100 0.1 1015854
18:00+25se6665100 0.0 1015612
21:00+26se6764100 0.0 1016729
15 june, tue
tue1500:00+26sse676699 0.0 1016847
03:00+25sse786960 0.0 10141016
06:00+26sse9106990 0.0 10151113
09:00+26s8107199 0.0 10171257
12:00+26s897010 0.1 10161279
15:00+25s79735 0.1 1014987
18:00+25se797071 0.0 1014618
21:00+26se786835 0.0 1016690
16 june, wed
wed1600:00+26sse786947 0.0 1015826
03:00+25sse797058 0.0 1014876
06:00+26sse786957 0.0 10151031
09:00+26s776999 0.0 10171020
12:00+25s777195 0.0 1017980
15:00+25sse677095 0.0 1015665
18:00+25se6772100 0.0 1015555
21:00+26se67724 0.0 1016651
17 june, thu
thu1700:00+26se67742 0.0 1016674
03:00+25sse567921 0.3 1014449
06:00+25sse57772 1.1 1016669
09:00+26sse567919 2.1 1018727
12:00+26s457615 2.8 1017644
15:00+26sse3370100 3.8 1015442
18:00+26ese4573100 0.0 1016397
21:00+26ese5674100 0.0 1017532